This demonstration page uses our WeatherBlox Daily Observations layout. Learn more.

Left ArrowRight Arrow

41.86663, -103.66717

Hourly Observations for October 26, 2015

Temp ( °F °C ) Dew Point ( °F °C ) Humidity (%) Winds ( mph kmh ) Pressure ( in mb ) Visibility ( mi km ) Precip ( " mm )
12:53 am 00:53 Clear 46 7.8 37 2.8 71 71 E 12 19 30.03 1017 10 16 N/A
1:53 am 01:53 Mostly Clear 47 8.3 38 3.3 71 71 E 5 7 30.02 1017 10 16 N/A
2:53 am 02:53 Mostly Clear 45 7.2 39 3.9 80 80 E 6 9 30.01 1016 10 16 N/A
3:53 am 03:53 Mostly Clear 46 7.8 39 3.9 77 77 NE 8 13 29.98 1015 10 16 N/A
4:53 am 04:53 Mostly Cloudy 44 6.7 39 3.9 83 83 WNW 7 11 30.02 1017 10 16 N/A
5:53 am 05:53 Mostly Cloudy 44 6.7 39 3.9 83 83 SW 5 7 30.03 1017 10 16 N/A
6:53 am 06:53 Mostly Clear 43 6.1 39 3.9 86 86 NNW 3 6 30.05 1018 10 16 N/A
7:53 am 07:53 Sunny 43 6.1 40 4.4 89 89 N 7 11 30.05 1018 10 16 N/A
8:53 am 08:53 Cloudy 45 7.2 40 4.4 83 83 N N/A 30.07 1018 10 16 N/A
9:53 am 09:53 Cloudy with Light Rain 46 7.8 40 4.4 79 79 NNE 8 13 30.06 1018 10 16 N/A
10:53 am 10:53 Cloudy with Light Rain 46 7.8 43 6.1 89 89 ESE 6 9 30.06 1018 10 16 0.01 0.25
11:53 am 11:53 Mostly Cloudy 50 10 45 7.2 83 83 VRB 3 6 30.00 1016 10 16 N/A
12:32 pm 12:32 Cloudy 48 9 45 7 87 87 SE 14 22 30.00 1016 10 16 N/A
12:53 pm 12:53 Mostly Cloudy 49 9.4 45 7.2 86 86 SE 10 17 29.98 1015 10 16 N/A
1:09 pm 13:09 Cloudy 50 10 44 6.7 80 80 ESE 12 19 29.94 1014 10 16 N/A
1:53 pm 13:53 Cloudy 51 10.6 44 6.7 77 77 ESE 10 17 29.95 1014 10 16 N/A
2:53 pm 14:53 Sunny 56 13.3 44 6.7 65 65 ESE 13 20 29.91 1013 10 16 N/A
3:53 pm 15:53 Sunny 56 13.3 44 6.7 65 65 SE 14 22 29.91 1013 10 16 N/A
4:53 pm 16:53 Sunny 55 12.8 44 6.7 67 67 SE 9 15 29.90 1013 10 16 N/A
5:53 pm 17:53 Sunny 50 10 42 5.6 74 74 ESE 8 13 29.91 1013 10 16 N/A
6:53 pm 18:53 Clear 48 8.9 41 5 77 77 ESE 9 15 29.91 1013 10 16 N/A
7:53 pm 19:53 Clear 46 7.8 40 4.4 79 79 ESE 8 13 29.91 1013 10 16 N/A
8:53 pm 20:53 Clear 45 7.2 40 4.4 83 83 ESE 10 17 29.90 1013 10 16 N/A
9:53 pm 21:53 Clear 44 6.7 40 4.4 85 85 E 10 17 29.90 1013 10 16 N/A
10:53 pm 22:53 Clear 42 5.6 38 3.3 85 85 E 7 11 29.91 1013 10 16 N/A
11:53 pm 23:53 Clear 42 5.6 38 3.3 85 85 ESE 8 13 29.88 1012 10 16 N/A

Powered by AerisWeather